一网星座-0188星 (ONEWEB-0188 )

导读

ONEWEB-0188是英国OneWeb星座的通信卫星,由OneWeb公司与空客防务联合研发,于北京时间2021年4月25日发射。该卫星运行于约1200公里近地轨道,单星重约147.5公斤,设计使用寿命5年,配备Ku/Ka波段天线,单星通信能力可达约7.5Gbps,为全球提供高速互联网接入服务,助力偏远地区网络覆盖与空天地一体化通信网络搭建,是OneWeb全球低轨星座组网的重要组成单元。

Basic Information
目录编号:
48231
目录名称:
ONEWEB-0188
国际标识:
2021-031X
轨道中心:
EARTH
卫星名称:
一网星座-0188星
卫星全名:
一网星座-0188星 (ONEWEB-0188 )
卫星状态:
在轨 (已飞行1876 天)
发射日期:
2021-04-25 UTC
国别 :
英国 (GB)
星等 :
--
Orbit Information
数据来源 国际轨道数据 AOE轨道数据
星历时间 2026-06-14T04:38:19+0800
15小时前
查看轨道信息
2026-06-11T06:00:00+0800
3天前
查看轨道信息
半长轴 7583.924km 7583.929km
偏心率 0.0001968 0.000214
轨道倾角 87.895° 87.894°
近地点辐角 101.297° 100.692°
升交点赤经 290.388° 290.973°
平近点角 258.838° 19.194°
近地点 1204.294km 1204.169km
远地点 1207.28km 1207.415km
周期 109.547分钟 109.547分钟
每日圈数 13.145037 13.145024
Detailed Information
平衡模式:
三轴稳定
覆盖范围:
全球
运营商:
一网卫星公司
运营商所在国:
英国
制造商(研发单位):
一网卫星公司
制造商所在国:
英国
使用方式:
暂无
Satellite Introduction
OneWeb卫星网络由648颗重约125公斤的微型卫星组成,运行在1200公里的轨道上。 每颗卫星都能够提供至少每秒8千兆位的吞吐量,以使用其高吞吐量的Ku频段有效载荷为家庭和移动平台提供互联网接入。该卫星仍在工作。
2D Orbit Map
3D Orbit Map
Orbit Altitude Analysis Chart
Orbit Inclination Analysis Chart
Orbit Comprehensive Analysis Chart
View Comprehensive Chart